TimeMDT,TemperatureF,Dew PointF,Humidity,Sea Level PressureIn,VisibilityMPH,Wind Direction,Wind SpeedMPH,Gust SpeedMPH,PrecipitationIn,Events,Conditions,WindDirDegrees,DateUTC
12:53 AM,46.9,17.1,30,29.59,10.0,North,26.5,34.5,N/A,,Mostly Cloudy,360,2012-03-20 06:53:00
1:53 AM,45.0,25.0,46,29.65,10.0,North,27.6,33.4,N/A,,Overcast,10,2012-03-20 07:53:00
2:53 AM,44.1,27.0,51,29.67,10.0,North,25.3,32.2,N/A,,Overcast,350,2012-03-20 08:53:00
3:53 AM,43.0,27.0,53,29.68,10.0,North,21.9,32.2,N/A,,Overcast,360,2012-03-20 09:53:00
4:53 AM,42.1,27.0,55,29.73,10.0,North,21.9,29.9,N/A,,Overcast,360,2012-03-20 10:53:00
5:53 AM,39.0,28.9,67,29.80,10.0,North,23.0,29.9,0.00,Rain,Light Rain,360,2012-03-20 11:53:00
6:53 AM,37.9,28.0,68,29.85,10.0,North,24.2,29.9,0.00,,Overcast,350,2012-03-20 12:53:00
7:53 AM,39.0,24.1,55,29.88,10.0,North,21.9,29.9,N/A,,Overcast,360,2012-03-20 13:53:00
8:53 AM,42.1,23.0,47,29.92,10.0,North,20.7,-,N/A,,Overcast,10,2012-03-20 14:53:00
9:53 AM,43.0,21.9,43,29.95,10.0,North,18.4,27.6,N/A,,Overcast,10,2012-03-20 15:53:00
10:53 AM,46.9,21.9,37,29.95,10.0,NNE,18.4,-,N/A,,Scattered Clouds,20,2012-03-20 16:53:00
11:53 AM,51.1,25.0,36,29.92,10.0,North,17.3,25.3,N/A,,Partly Cloudy,10,2012-03-20 17:53:00
12:53 PM,54.0,26.1,34,29.90,10.0,NNE,17.3,26.5,N/A,,Partly Cloudy,20,2012-03-20 18:53:00
1:53 PM,55.0,26.1,33,29.88,10.0,North,11.5,26.5,N/A,,Clear,10,2012-03-20 19:53:00
2:53 PM,57.0,26.1,30,29.84,8.0,NE,16.1,24.2,N/A,,Clear,40,2012-03-20 20:53:00
3:53 PM,57.2,26.6,31,29.86,10.0,NE,11.5,-,N/A,,Partly Cloudy,50,2012-03-20 21:53:00
4:53 PM,55.0,26.1,33,29.88,10.0,NE,12.7,-,N/A,,Partly Cloudy,50,2012-03-20 22:53:00
5:53 PM,54.0,27.0,35,29.90,10.0,NE,9.2,-,N/A,,Mostly Cloudy,50,2012-03-20 23:53:00
6:53 PM,51.1,27.0,39,29.92,10.0,ENE,8.1,-,N/A,,Clear,60,2012-03-21 00:53:00
7:53 PM,48.0,27.0,44,29.94,10.0,NE,5.8,-,N/A,,Clear,50,2012-03-21 01:53:00
8:53 PM,45.0,28.0,52,29.96,10.0,North,-9999.0,-,N/A,,Clear,0,2012-03-21 02:53:00
9:53 PM,42.1,27.0,55,29.98,10.0,North,4.6,-,N/A,,Partly Cloudy,360,2012-03-21 03:53:00
10:53 PM,42.1,27.0,55,29.97,10.0,NNW,3.5,-,N/A,,Clear,330,2012-03-21 04:53:00
11:53 PM,39.0,26.1,60,29.97,10.0,WNW,5.8,-,N/A,,Clear,300,2012-03-21 05:53:00